This demonstration page uses our WeatherBlox Daily Observations layout. Learn more.

Left ArrowRight Arrow

Hourly Observations for February 9, 2020

Temp ( °F °C ) Dew Point ( °F °C ) Humidity (%) Winds ( mph kmh ) Pressure ( in mb ) Visibility ( mi km ) Precip ( " mm )
12:59 am 00:59 Mostly Cloudy 42 5.6 29 -1.7 60 60 SW 8 13 30.40 1029 10 16 0.00 0.00
1:59 am 01:59 Mostly Cloudy 40 4.4 29 -1.7 65 65 WSW 3 6 30.40 1030 10 16 0.00 0.00
2:59 am 02:59 Mostly Cloudy 41 5 31 -0.6 67 67 WSW 6 9 30.41 1030 10 16 0.00 0.00
3:59 am 03:59 Partly Cloudy 39 3.9 31 -0.6 73 73 WSW 7 11 30.43 1031 10 16 0.00 0.00
4:40 am 04:40 Mostly Cloudy 40 4.4 32 0 73 73 WSW 6 9 30.44 1031 10 16 0.00 0.00
4:59 am 04:59 Partly Cloudy 40 4.4 31 -0.6 70 70 W 8 13 30.45 1031 10 16 0.00 0.00
5:59 am 05:59 Partly Cloudy 39 3.9 32 0 76 76 W 5 7 30.47 1032 10 16 0.00 0.00
6:59 am 06:59 Partly Cloudy 38 3.3 32 0 79 79 WNW 8 13 30.49 1032 10 16 0.00 0.00
7:59 am 07:59 Partly Cloudy 40 4.4 33 0.6 77 77 W 7 11 30.52 1033 10 16 0.00 0.00
8:59 am 08:59 Mostly Sunny 41 5 33 0.6 73 73 W 7 11 30.53 1034 10 16 0.00 0.00
9:59 am 09:59 Mostly Sunny 43 6.1 34 1.1 71 71 VRB 5 7 30.55 1034 10 16 0.00 0.00
10:59 am 10:59 Partly Cloudy 45 7.2 34 1.1 66 66 NW 5 7 30.56 1035 10 16 0.00 0.00
11:59 am 11:59 Mostly Sunny 47 8.3 35 1.7 63 63 NW 7 11 30.55 1035 10 16 0.00 0.00
12:59 pm 12:59 Mostly Sunny 49 9.4 35 1.7 59 59 VRB 5 7 30.53 1034 10 16 0.00 0.00
1:59 pm 13:59 Partly Cloudy 49 9.4 35 1.7 59 59 NE 6 9 30.51 1033 10 16 0.00 0.00
2:59 pm 14:59 Partly Cloudy 47 8.3 35 1.7 63 63 ENE 7 11 30.50 1033 10 16 0.00 0.00
3:59 pm 15:59 Partly Cloudy 47 8.3 33 0.6 59 59 E 9 15 30.46 1032 10 16 0.00 0.00
4:59 pm 16:59 Partly Cloudy 47 8.3 36 2.2 66 66 SE 5 7 30.49 1033 10 16 0.00 0.00
5:59 pm 17:59 Partly Cloudy 44 6.7 36 2.2 73 73 SE 6 9 30.51 1033 10 16 0.00 0.00
6:59 pm 18:59 Partly Cloudy 43 6.1 36 2.2 76 76 SE 6 9 30.51 1033 10 16 0.00 0.00
7:59 pm 19:59 Partly Cloudy 43 6.1 37 2.8 80 80 SE 6 9 30.50 1033 10 16 0.00 0.00
8:59 pm 20:59 Partly Cloudy 43 6.1 37 2.8 80 80 SSE 5 7 30.49 1033 9 14 0.00 0.00
9:59 pm 21:59 Partly Cloudy 42 5.6 37 2.8 82 82 S 5 7 30.49 1032 10 16 0.00 0.00
10:59 pm 22:59 Mostly Clear 42 5.6 37 2.8 82 82 SSE 7 11 30.47 1032 10 16 0.00 0.00
11:59 pm 23:59 Mostly Cloudy 42 5.6 37 2.8 82 82 S 7 11 30.45 1031 10 16 0.00 0.00

Powered by AerisWeather